{"data":{"norad_id":67571,"intl_designator":"2026-016L","name":"STARLINK-36578","alt_names":[],"object_type":"PAYLOAD","status":"ACTIVE","operator":null,"country":"US","launch_date":"2026-01-25","launch_site_code":"AFWTR","launch_vehicle":null,"mission":null,"orbit_class":"UNKNOWN","rcs_meters":null,"size_class":null,"mass_kg":null,"dimensions":null,"purposes":["comms"],"wikipedia_slug":null,"has_3d_model":false,"image_url":null,"decayed_at":null,"tle_current":{"epoch":"2026-09-19T10:29:47.981760Z","epoch_age_seconds":164071,"freshness":"FRESH","line1":"1 67571U 26016L   26262.43736090  .00009197  00000+0  28683-3 0  9996","line2":"2 67571  97.2870 321.0534 0000758  89.6588 270.4742 15.33449066 36559","mean_motion":15.33449066,"eccentricity":7.58e-5,"inclination_deg":97.287,"raan_deg":321.0534,"arg_perigee_deg":89.6588,"mean_anomaly_deg":270.4742,"bstar":0.00028683,"rev_number":3655,"period_min":93.905955660871,"perigee_km":465.0123269093,"apogee_km":466.04982698977,"semimajor_km":6843.6680769495,"source":"CELESTRAK","updated_at":"2026-09-20T09:00:43.576019Z"}}}